Weather History for KOGB - January, 2014

Change the Weather History Date:

Friday, January 31, 2014

  Actual Average Record
Temperature  
Mean Temperature 40 °F 47 °F  
Max Temperature 57 °F 58 °F 79 °F (2002)
Min Temperature 22 °F 36 °F 9 °F (1966)
Degree Days  
Heating Degree Days 25 18  
Month to date heating degree days 707 596  
Since 1 July heating degree days 1497 1497  
Cooling Degree Days 0 0  
Month to date cooling degree days 0 1  
Year to date cooling degree days 0 1  
Moisture  
Dew Point 18 °F    
Average Humidity 55    
Maximum Humidity 88    
Minimum Humidity 18    
Precipitation  
Precipitation 0.00 in 0.16 in 0.89 in (1960)
Month to date precipitation 2.16 3.98  
Year to date precipitation 2.16 3.98  
Sea Level Pressure  
Sea Level Pressure 30.21 in    
Wind  
Wind Speed 0 mph (SSE)    
Max Wind Speed 8 mph    
Max Gust Speed 9 mph    
Visibility 10 miles    
Events      
T = Trace of Precipitation, MM = Missing Value Source: NWS Daily Summary

Daily Weather History Graph

Daily Weather History Graph

Search for Another Location

Airport or City:

Trip Planner

Search our weather history database for the weather conditions in past years. The results will help you decide how hot, cold, wet, or windy it might be!

Date:

Astronomy

Jan. 31, 2014 Rise Set
Actual Time 7:20 AM EST 5:54 PM EST
Civil Twilight 6:54 AM EST 6:20 PM EST
Nautical Twilight 6:24 AM EST 6:49 PM EST
Astronomical Twilight 5:54 AM EST 7:19 PM EST
Moon 7:34 AM EST 7:10 PM EST
Length of Visible Light 11h 26m
Length of Day
10h 33m
New Moon, 1% of the Moon is Illuminated
Jan 31
New Moon
Feb 6
First Quarter
Feb 14
Full
Feb 22
Last Quarter
Mar 1
New

Hourly Weather History & Observations

Time (EST) Temp. Windchill Dew Point Humidity Pressure Visibility Wind Dir Wind Speed Gust Speed Precip Events Conditions
12:53 AM 30.0 °F - 16.0 °F 56% 30.23 in 10.0 mi Calm Calm - N/A   Clear
1:20 AM 28.9 °F - 21.0 °F 72% 30.23 in 10.0 mi Calm Calm - N/A   Mostly Cloudy
1:49 AM 28.4 °F - 17.6 °F 64% 30.23 in 10.0 mi Calm Calm - N/A   Partly Cloudy
1:53 AM 28.0 °F - 18.0 °F 66% 30.23 in 10.0 mi Calm Calm - N/A   Partly Cloudy
2:53 AM 27.0 °F - 19.9 °F 75% 30.23 in 10.0 mi Calm Calm - N/A   Clear
3:53 AM 26.1 °F - 19.9 °F 78% 30.20 in 10.0 mi Calm Calm - N/A   Clear
4:53 AM 25.0 °F - 18.0 °F 75% 30.20 in 10.0 mi Calm Calm - N/A   Clear
5:53 AM 23.0 °F - 19.0 °F 85% 30.21 in 10.0 mi Calm Calm - N/A   Clear
6:53 AM 23.0 °F - 18.0 °F 81% 30.24 in 10.0 mi Calm Calm - N/A   Clear
7:53 AM 24.1 °F - 18.0 °F 77% 30.23 in 10.0 mi Calm Calm - N/A   Clear
8:53 AM 28.9 °F - 19.9 °F 69% 30.27 in 10.0 mi Calm Calm - N/A   Clear
9:53 AM 37.9 °F - 15.1 °F 39% 30.27 in 10.0 mi Calm Calm - N/A   Clear
10:53 AM 42.1 °F - 10.0 °F 27% 30.26 in 10.0 mi Calm Calm - N/A   Clear
11:53 AM 45.0 °F 43.5 °F 12.9 °F 27% 30.24 in 10.0 mi Variable 3.5 mph - N/A   Clear
12:53 PM 48.0 °F - 10.9 °F 22% 30.20 in 10.0 mi Calm Calm - N/A   Clear
1:53 PM 52.0 °F - 10.9 °F 19% 30.17 in 10.0 mi Calm Calm - N/A   Clear
2:53 PM 54.0 °F - 10.9 °F 18% 30.16 in 10.0 mi Calm Calm - N/A   Clear
3:53 PM 55.9 °F - 12.9 °F 18% 30.17 in 10.0 mi Calm Calm - N/A   Clear
4:53 PM 55.9 °F - 12.9 °F 18% 30.17 in 10.0 mi Calm Calm - N/A   Clear
5:53 PM 53.1 °F - 19.0 °F 26% 30.17 in 10.0 mi SSE 3.5 mph - N/A   Clear
6:53 PM 42.1 °F 40.2 °F 24.1 °F 49% 30.19 in 10.0 mi SE 3.5 mph - N/A   Clear
7:53 PM 37.9 °F - 25.0 °F 60% 30.19 in 10.0 mi Calm Calm - N/A   Clear
8:53 PM 35.1 °F - 26.1 °F 70% 30.20 in 10.0 mi Calm Calm - N/A   Clear
9:53 PM 33.1 °F - 26.1 °F 75% 30.21 in 10.0 mi Calm Calm - N/A   Clear
10:53 PM 32.0 °F - 25.0 °F 75% 30.20 in 10.0 mi Calm Calm - N/A   Clear
11:53 PM 30.9 °F - 26.1 °F 82% 30.20 in 10.0 mi Calm Calm - N/A   Clear